www.pogodaiklimat.ru

Погода и климат >> Архив погоды >> Россия >> Краснодарский край >> Тихорецк


ПОГОДА в Тихорецке

  • Прогноз погоды в Тихорецке
  • Монитор погоды в Тихорецке

АРХИВ ПОГОДЫ в Тихорецке

Время (UTC), дата Ветер
(напр.,м/с)
 
Видим.   Явления Облачность Т
(С)
Тd
(С)
f
(%)
Тe
(С)
Тes
(С)
Комфортность P
(гПа)
Po
(гПа)
Тmin
(С)
Tmax
(С)
R
(мм)
R24
(мм)
S
(см)
09 19.04 В 6-12
{12}
10 км 10/0
[Ac As]
+9.2 -8.8 27 +6 +8 1020.9 1011.4
12 19.04 В 7-12
{15}
10 км 10/0
[Ac As]
+10.2 -8.3 26 +7 +8 1020.4 1010.8
15 19.04 В 5-13
{13}
10 км 10/0
[Ac As]
+9.0 -8.2 29 +6 +7 1020.9 1011.3 +10.2
18 19.04 СВ 4
{13}
10 км 10/0
[Ac As]
+6.9 -7.8 34 +4 +4 1022.0 1012.4
21 19.04 СВ 3 10 км ясно +5.4 -8.0 37 +3 +3 1021.7 1012.0
00 20.04 СВ 3 10 км ясно +2.9 -6.9 48 -0 -0 1021.7 1011.9
03 20.04 СВ 4 10 км ясно +1.2 -4.9 64 -4 -3 1022.0 1012.2 +1.1
06 20.04 В 5-11
{11}
10 км 3/0
[Ci ing]
+7.9 -6.1 36 +5 +9 1022.4 1012.7
09 20.04 В 5-11
{13}
10 км 4/0
[Ci fib]
+11.0 -4.8 33 +9 +16 1022.5 1013.0
12 20.04 В 4
{13}
10 км 10/5 1000 м
[Cu med, cong Ci fib]
+12.3 -5.0 29 +11 +14 1022.0 1012.5
15 20.04 В 3
{11}
10 км 10/0
[Ci fib]
+11.6 -5.1 31 +10 +11 1021.9 1012.4 +12.4
18 20.04 В 2 10 км 8/0
[Ci fib]
+7.8 -2.8 47 +6 +6 1022.9 1013.3
21 20.04 СВ 2 10 км 8/0
[Ci fib]
+5.0 -2.5 58 +3 +3 1022.7 1013.0
00 21.04 СВ 3 10 км ясно +3.4 -4.4 57 0 0 1021.7 1011.9
03 21.04 СВ 4 10 км 4/0
[Ci fib]
+2.8 -3.2 65 -2 -1 1021.7 1011.9 +2.7
06 21.04 СВ 4 10 км 10/0
[Ac trans Cc]
+9.6 -2.2 44 +7 +11 1021.6 1012.0
09 21.04 В 6-12
{13}
10 км 8/0
[Cc]
+13.7 -5.8 25 +12 +17 1021.1 1011.6
12 21.04 СВ 6-13
{13}
10 км 4/0
[Cc]
+14.7 -5.9 24 +13 +17 1020.3 1010.9
15 21.04 В 4
{13}
10 км 6/0
[Ac cuf Cc]
+13.5 -4.9 27 +12 +13 1020.5 1011.1 +15.3
18 21.04 СВ 2
{10}
10 км ясно +10.3 -3.4 38 +9 +9 1021.6 1012.1
21 21.04 СВ 3 10 км ясно +7.6 -2.6 48 +5 +5 1022.0 1012.4
00 22.04 СВ 3 10 км ясно +4.7 -1.9 62 +2 +2 1022.0 1012.3
03 22.04 СВ 3 10 км ясно +3.6 -1.3 70 0 0 1022.5 1012.7 +3.4
06 22.04 СВ 4-10
{10}
10 км ясно +10.7 -1.6 42 +9 +14 1022.7 1013.1
09 22.04 В 6-13
{14}
10 км 3/3 1000 м
[Cu hum]
+14.6 -2.5 31 +13 +18 1022.5 1013.1
12 22.04 В 6-11
{13}
10 км 8/8 600 м
[Cb cap]
+15.1 -3.7 27 +14 +15 1022.3 1012.9
15 22.04 В 4
{11}
50 км 8/0
[Ac trans Cs]
+14.5 -4.4 27 +14 +14 1022.3 1012.9 +15.9
18 22.04 СВ 2 10 км ясно +11.0 -4.2 34 +10 +10 1023.9 1014.4
21 22.04 СВ 2 10 км ясно +8.2 -3.3 44 +7 +7 1024.9 1015.2
00 23.04 СВ 2 10 км ясно +5.8 -3.3 52 +4 +4 1025.5 1015.8
03 23.04 СВ 2 10 км ясно +5.1 -2.7 57 +3 +3 1026.3 1016.5 +4.8
06 23.04 СВ 3 10 км ясно +13.5 -0.8 37 +13 +19 1027.2 1017.7
09 23.04 В 2 10 км ясно +17.5 -3.2 24 +18 +34 опасность
простуды
1027.5 1018.1
12 23.04 В 2 10 км ясно +18.9 -4.2 21 +19 +30 1027.1 1017.8
15 23.04 В 1 10 км ясно +17.6 -4.7 21 +19 +20 1027.1 1017.8 +19.0
18 23.04 штиль 0 10 км ясно +9.6 -1.6 45 +9 +9 1028.3 1018.7
21 23.04 штиль 0 10 км ясно +6.6 -0.9 59 +6 +6 1028.3 1018.6
00 24.04 штиль 0 10 км ясно +4.5 -1.6 65 +4 +4 1028.6 1018.8
03 24.04 штиль 0 10 км ясно +3.2 -0.3 78 +2 +3 1029.1 1019.2 +2.5
06 24.04 З 2 10 км 6/0
[Ci fib]
+14.8 +1.1 39 +15 +22 1028.7 1019.3
09 24.04 З 3 10 км 10/0
[]
+19.8 -0.5 26 +20 +27 1027.3 1018.0
12 24.04 СЗ 3 10 км 10/4 1000 м
[Cu med, cong Cs]
+20.7 -1.3 23 +21 +25 комфорт 1026.4 1017.1
15 24.04 З 3 10 км 10/0
[Ci fib]
+18.6 +0.2 29 +19 +20 1025.9 1016.6 +21.4
18 24.04 З 1 10 км ясно +12.2 +1.2 47 +13 +13 1026.9 1017.4
21 24.04 З 1 10 км ясно +10.1 +2.3 58 +10 +10 1027.0 1017.4
00 25.04 Ю 1 10 км ясно +7.4 +2.6 72 +7 +7 1026.8 1017.1
03 25.04 Ю 1 10 км ясно +5.5 +2.6 82 +4 +5 1027.0 1017.3 +5.5
06 25.04 ЮЗ 2 10 км ясно +13.7 +6.5 62 +13 +22 1027.0 1017.5
09 25.04 ЮЗ 2 10 км ясно +19.9 +6.7 42 +21 +37 комфорт 1026.1 1016.9
12 25.04 СЗ 2 10 км ясно +22.6 +4.6 31 +23 +33 комфорт 1024.8 1015.6
15 25.04 С 1 10 км ясно +22.2 +3.2 29 +22 +24 комфорт 1023.6 1014.4 +23.7
18 25.04 СЗ 1 10 км ясно +15.1 +4.6 49 +16 +16 1024.5 1015.1
21 25.04 З 1 10 км ясно +10.9 +3.8 62 +11 +11 1024.1 1014.6
00 26.04 штиль 0 10 км ясно +7.4 +3.7 77 +7 +7 1023.6 1014.0
03 26.04 Ю 1 10 км 6/0
[Ac trans]
+7.1 +4.4 83 +6 +6 1023.3 1013.6 +6.4
06 26.04 Ю 2 10 км н/о +16.1 +7.7 57 +16 +16 1022.8 1013.4

 

Местоположение метеостанции Тихорецк (Краснодарский край, Россия): широта 45.85 долгота 40.08 высота над уровнем моря 78 м.

В архиве по умолчанию представлена погода в Тихорецке за последнюю неделю. Архивные данные за месяц целиком и за предыдущие месяцы, начиная с января 2011 года, Вы можете получить, выбрав интересующий диапазон дат из раскрывающегося списка и нажав кнопку "Ввод!".


*Определитесь, кто Вы:
робот инопланетянин человек

Внимание! Время в таблицах - всемирное. Для получения местного времени необходимо прибавить поправку, которая равна 3 ч.

Смотрите также архив погоды в соседних городах и на ближайших метеорологических станциях:

Погода в Сосыке (Краснодарский край, Россия) (37 км)
Погода в Кропоткине (Краснодарский край, Россия) (60 км)
Погода в Кореновске (Краснодарский край, Россия) (63 км)
Погода в Белой Глине (Краснодарский край, Россия) (67 км)
Погода в Усть-Лабинске (Краснодарский край, Россия) (74 км)
Погода в Кущевской (Краснодарский край, Россия) (84 км)
Погода в Каневской (Краснодарский край, Россия) (89 км)
Погода в Тимашевске (Краснодарский край, Россия) (93 км)
Погода в Новоалександровске (Ставропольский край, Россия) (95 км)
Погода в Красногвардейском (Ставропольский край, Россия) (109 км)

Пояснения к столбцам:

Ветер - указаны скорость ветра в м/с - средняя за 10 мин, порывы в срок и между сроками (в фигурных скобках) и направление, откуда дует ветер: С - северный, СВ - северо-восточный, В - восточный, ЮВ - юго-восточный, Ю - южный, ЮЗ - юго-западный, З - западный, СЗ - северо-западный.
Видимость - горизонтальная дальность видимости в метрах или километрах. При видимости от 1 до 10 км при отсутствии осадков обычно наблюдается дымка, при ухудшении видимости до 1 км и менее - туман. В сухую погоду видимость может ухудшаться дымом, пылью или мглою.
Явления - указаны атмосферные явления, наблюдавшиеся в срок или в последний час перед сроком; фигурными скобками обозначены явления, наблюдавшиеся между сроками (за 1-3 часа до срока); квадратными скобками обозначены град или гололедные отложения с указанием их диаметра в мм.
Облачность - указаны через наклонную черту общая и нижняя облачность в баллах и высота нижней границы облаков в метрах; квадратными скобками обозначены формы облаков: Ci - перистые, Cs - перисто-слоистые, Cc - перисто-кучевые, Ac - высококучевые, As - высокослоистые, Sc - слоисто-кучевые, Ns - слоисто-дождевые, Cu - кучевые, Cb - кучево-дождевые. Подробнее классификацию облаков см. в Атласе облаков (PDF).
T - Температура воздуха - температура, измеренная на высоте 2 м над землей.
Td - Температура точки росы - температура, при понижении до которой содержащийся в воздухе водяной пар достигнет насыщения.
f - Относительная влажность воздуха - влажноcть воздуха, измеренная на высоте 2 м над землей.
Te - Эффективная температура - температура, которую ощущает одетый по сезону человек в тени. Характеристика душности погоды. При расчете учитывается влияние влажности воздуха и скорости ветра на теплоощущения человека.
Tes - Эффективная температура на солнце - температура, которую ощущает человек, с поправкой на солнечный нагрев. Характеристика знойности погоды. Зависит от высоты солнца над горизонтом, облачности и скорости ветра. Ночью, в пасмурную погоду, а также при ветре 12 м/с и более поправка равна нулю.
P - Атмосферное давление - приведенное к уровню моря атмосферное давление.
Po - Атмосферное давление - измеренное на уровне метеостанции атмосферное давление.
Tmin - Минимальная температура - минимум температуры воздуха на высоте 2 м над землей.
Tmax - Максимальная температура - максимум температуры воздуха на высоте 2 м над землей.
R - Количество осадков - Количество выпавших осадков за период времени, мм. При наведении курсора мыши на число - период времени, за который выпало указанное количество осадков.
R24 - Количество осадков - Количество выпавших осадков за 24 часа, мм.
S - Снежный покров - Высота снежного покрова, см. При наведении курсора мыши на число - состояние снежного покрова и степень покрытия местности в баллах.